Flag for Morocco Weather past 2 weeks in Rabat, Morocco

63 °F


Feels Like: 63 °F
Forecast: 53 / 69 °F
Wind: 3 mph from North

Location: Rabat-Sale

Current Time: Nov 29, 2015 at 11:15:23 AM

Latest Report: Nov 29, 2015 at 10:30 AM

Visibility: 5 mi

Pressure: 30.30 "Hg

Humidity: 64%

Dew point: 50 °F

Location of RabatLocation

Historic Weather in Rabat — Graph


Rabat temperature yesterday

Maximum temperature yesterday: 68 °F (at 1:30 PM)
Minimum temperature yesterday: 48 °F (at 12:00 AM)
Average temperature yesterday: 58 °F

Past Weeks' High & Low Weather Summary

High72 °F (Nov 16, 12:30 PM)100% (Nov 14, 9:00 AM)30.42 "Hg (Nov 14, 9:00 AM)
Low43 °F (Nov 24, 1:30 AM)45% (Nov 24, 1:00 PM)29.95 "Hg (Nov 23, 3:00 AM)
Average58 °F81%30.20 "Hg
* Reported Nov 14 9:00 AM — Nov 29 9:30 AM, Rabat, Weather by CustomWeather, © 2015

Note: Actual official high and low records may vary slightly from our data, if they occured in-between our weather recording intervals... More about our weather records


Rabat weather history for previous 24 hours

Time TempWeatherWind HumidityBarometerVisibility
9:30 AM
Sun, Nov 29
59 °FClear.1 mph77%30.30 "Hg5 mi
9:00 AM55 °FClear.1 mph88%30.27 "Hg5 mi
8:30 AM52 °FClear.2 mph94%30.27 "Hg3 mi
8:00 AM50 °FClear.3 mph94%30.27 "Hg3 mi
7:30 AM50 °FFog.2 mph94%30.24 "Hg2 mi
7:00 AM50 °FFog.2 mph94%30.24 "Hg2 mi
6:30 AM52 °FFog.3 mph88%30.24 "Hg2 mi
5:00 AM52 °FFog.5 mph94%30.21 "Hg2 mi
4:00 AM52 °FFog.5 mph94%30.21 "Hg2 mi
3:30 AM52 °FFog.3 mph94%30.21 "Hg2 mi
3:00 AM52 °FFog.3 mph94%30.21 "Hg2 mi
2:30 AM50 °FFog.2 mph94%30.21 "Hg2 mi
2:00 AM50 °FFog.2 mph94%30.21 "Hg2 mi
1:30 AM50 °FFog.2 mph94%30.24 "Hg2 mi
1:00 AM50 °FFog.2 mph94%30.24 "Hg2 mi
12:30 AM52 °FFog.3 mph94%30.21 "Hg2 mi
12:00 AM50 °FPassing clouds.2 mph94%30.21 "Hg3 mi
11:30 PM
Sat, Nov 28
54 °FPassing clouds.5 mph88%30.21 "Hg3 mi
11:00 PM54 °FPassing clouds.5 mph94%30.21 "Hg3 mi
9:30 PM55 °FPassing clouds.5 mph88%30.18 "Hg4 mi
8:30 PM55 °FPassing clouds.5 mph88%30.18 "Hg4 mi
8:00 PM52 °FPassing clouds.2 mph88%30.18 "Hg4 mi
7:30 PM54 °FPassing clouds.3 mph94%30.18 "Hg4 mi
7:00 PM55 °FPassing clouds.2 mph88%30.15 "Hg4 mi
6:00 PM57 °FClear.3 mph88%30.15 "Hg4 mi
5:00 PM63 °FClear.8 mph73%30.12 "Hg5 mi
4:30 PM64 °FClear.8 mph68%30.12 "Hg5 mi
3:30 PM66 °FPassing clouds.12 mph64%30.12 "Hg5 mi
3:00 PM66 °FPassing clouds.12 mph64%30.12 "Hg4 mi
2:30 PM66 °FPassing clouds.12 mph64%30.12 "Hg4 mi
2:00 PM66 °FScattered clouds.10 mph64%30.12 "Hg4 mi
1:30 PM68 °FClear.8 mph60%30.12 "Hg4 mi
1:00 PM66 °FScattered clouds.6 mph64%30.12 "Hg4 mi
12:30 PM66 °FPartly sunny.2 mph60%30.12 "Hg5 mi
12:00 PM66 °FScattered clouds.3 mph60%30.12 "HgN/A
11:30 AM66 °FScattered clouds.3 mph64%30.12 "HgN/A
11:00 AM64 °FScattered clouds.3 mph73%30.15 "HgN/A
Weather by CustomWeather, © 2015

See weather overviewHow to use our weather pages